SL-16 DEB

Satellite information

Favourite Embed

Satellite Type and Status

DEBRISIN ORBIT

Key statistics

Satellite SL-16 DEB at a glance.

Uptime

11896

Days in orbit

Revolutions

≈ 14.1

Per day

Orbit

LEO

Low Earth Orbit

Inclination

71.0

Latest

Satellite identification and parameters

Extended collection of information and parameters for SL-16 DEB.

Object identification

Identified? True

Debris? True

Object name: SL-16 DEB

International designator: 1993-016BF

Object number (NORAD): 39881

Object ID (CCSDS): 39881

Country: COMMONWEALTH OF INDEPENDENT STATES (CIS)

Current information (Y/N): Y

RCS size: SMALL

Orbital parameters

Period: 102.273 minutes

Inclination: 70.9867 deg

SMA: 7244.356 km

Apoapsis: 954.959 km

Periapsis: 777.483 km

RAAN: 27.0278 deg

Eccentricy: 0.01224926

Argument of periapsis: 357.1443 deg

Mean anomaly: 2.8961 deg

Mean motion: 14.08001407 rev/day

Mean motion (dot): 0.00001925 rev/day2

B* drag term: 0.0010821086 1/REarth

Two-line elements (TLE)

Creation date: Oct. 11, 2025, 10:47 a.m.

Reference frame: TEME

Reference center: EARTH

Epoch: Oct. 11, 2025, 12:15 a.m. UTC

TLE line 0: 0 SL-16 DEB

TLE line 1: 1 39881U 93016BF 25284.01092245 .00001925 00000-0 10821-2 0 9993

TLE line 2: 2 39881 70.9867 27.0278 0122493 357.1443 2.8961 14.08001407562433

Live tracking on map

Real-time ground track for satellite SL-16 DEB.

In-orbit conjunctions

A list of the most updated potential collisions computed for object SL-16 DEB.

Target Orbit TCA Probability of collision Miss distance Type
M-4S R/B LEO 2024-07-06 15:31:50 0.0001214614 418.0 (m) ROCKET BODY

Associated space launch

Second generation ELING satellite

SL-16 DEB was lifted into orbit during the mission ‘Zenit-2 | Tselina-2 13’, on board a Zenit-2 space rocket.

The launch took place on March 26, 1993, 2:21 a.m. from 45/1.

For more information about the launch, click the button.

Launch to space Zenit-2 | Tselina-2 13
Zenit-2 | Tselina-2 13

Agency: N/A

Status: Launch Successful

Launch date: March 26, 1993, 2:21 a.m. UTC

Rocket: Zenit-2

Launch pad: 45/1

Location: Baikonur Cosmodrome, Republic of Kazakhstan

...

Latest news about this satellite

There are no fresh news available about this satellite. Check back as we update our databases every day.


Newsletter sign-up

Weekly statistics, charts and insights to help you stay on top of the space industry.